STARLINK-1471, 45735

Orbit data source: Space-Track

STARLINK-1471, 45735 is a payload satellite owned by SpaceX/Seattle (US) in LEO that was launched on Sat, 13 Jun 2020 UTC via an FALCON 9 launch vehicle from the Air Force Eastern Test Range (AFETR). Payload-class satellites include a variety of spacecraft equipped with specific instruments for various scientific and technological missions. These include communications satellites like Starlink; space stations such as the ISS; scientific satellites like the Hubble; Earth observation satellites from companies like Planet Labs, Umbra, and HawkEye 360; GPS; miniature CubeSats for education and research; and military/defense satellites.

Loading next visibility...
Identifier
45735, 2020-038F
Orbit
LEO
Country
Flag of USUS
Related business
Manufacturer
SpaceX/Seattle
Mission
Partially operational Commercial Communications
Bus & Motor
STARLINK, Unknown motor
Mass
260 kg wet, ~248 kg dry
Launch date (UTC)
2020-06-13 (6 years ago)
Launch vehicle
FALCON 9
Launch site
Air Force Eastern Test Range (AFETR)
Object type
Payload
Rocket body
Debris
Shape & HBR
Box + 1 Pan, 10.1 m
Radar Cross Section
13.562 m², Large (>1 m²)

Expand to show TLE details & history
Last TLE update: 13 hours ago

TLE from 13 hours ago
0 STARLINK-1471
1 45735U 20038F   26255.68546639  .00029772  00000-0  34905-3 0  9995
2 45735  53.0411 318.6529 0002377  26.3455 333.7678 15.61281742346612
Epoch: 2026-09-12T16:27Z
TLE epoch observation values (Epoch: 2026-09-12T16:27:04.296Z)
Latitude
-0.00002°
Longitude
80.19407°
Altitude
383.411 km
Speed
7.682 km/s
True Right ascension
21h 14m 36s
True Declination
0° 00' 00"
Sunlit
Object was in full shadow at epoch
Visualization orbit readout
Latitude
Unknown
Longitude
Unknown
Altitude
Unknown
Speed
Unknown
Apparent Right ascension
Unknown
Apparent Declination
Unknown
Sunlit
N/A
Visualization observer readout
Local Sidereal Time
21:54:32
Azimuth
Unknown
Elevation
Unknown
Doppler factor
Unknown
Orbital elements
Apogee altitude
385.84 km
Perigee altitude
382.625 km
Semi-major axis
6,762.37 km
Eccentricity
0.00024
Inclination
53.0411°
RAAN
318.6529°
Arg. of periapsis
26.3455°
True anomaly
333.75576°
Mean anomaly
333.7678°
Eccentric anomaly
333.76178°
Mean motion
3.90297 °/min
Orbital period
92.24 mins
BSTAR
0.00034905
Loading maneuver chart data...
Computing Atmospheric mass density...

Documentation

Showing up to 5 results
|